Weather History for KGYB - April, 2013

Change the Weather History Date:

Thursday, April 11, 2013

  Actual Average (KAUS) Record (KAUS)
Temperature  
Mean Temperature 52 °F 66 °F  
Max Temperature 64 °F 79 °F 92 °F (1948)
Min Temperature 41 °F 53 °F 42 °F (1998)
Degree Days  
Heating Degree Days 12 3  
Month to date heating degree days 36  
Since 1 July heating degree days 1873  
Cooling Degree Days 0 4  
Month to date cooling degree days 35  
Year to date cooling degree days 93  
Growing Degree Days 2 (Base 50)    
Moisture  
Dew Point 37 °F    
Average Humidity 62    
Maximum Humidity 87    
Minimum Humidity 34    
Precipitation  
Precipitation 0.02 in 0.06 in 1.45 in (1969)
Month to date precipitation 0.72  
Year to date precipitation 8.01  
Snow  
Snow 0.00 in - - ()
Month to date snowfall  
Since 1 July snowfall  
Snow Depth -    
Sea Level Pressure  
Sea Level Pressure 29.93 in    
Wind  
Wind Speed 8 mph (North)    
Max Wind Speed 15 mph    
Max Gust Speed 22 mph    
Visibility 10 miles    
Events Rain    
T = Trace of Precipitation, MM = Missing Value Source: NWS Daily Summary

Daily Weather History Graph

Daily Weather History Graph

Search for Another Location

Airport or City:

Trip Planner

Search our weather history database for the weather conditions in past years. The results will help you decide how hot, cold, wet, or windy it might be!

Date:

Astronomy

Apr. 11, 2013 Rise Set
Actual Time 7:05 AM CDT 7:53 PM CDT
Civil Twilight 6:40 AM CDT 8:17 PM CDT
Nautical Twilight 6:11 AM CDT 8:46 PM CDT
Astronomical Twilight 5:42 AM CDT 9:15 PM CDT
Moon 7:43 AM CDT (4/11) 9:20 PM CDT (4/11)
Length of Visible Light 13h 36m
Length of Day
12h 47m
New Moon, 2% of the Moon is Illuminated
Apr 11
New Moon
Apr 18
First Quarter
Apr 25
Full
May 2
Last Quarter
May 9
New

Hourly Weather History & Observations

Time (CDT) Temp. Windchill Dew Point Humidity Pressure Visibility Wind Dir Wind Speed Gust Speed Precip Events Conditions
12:15 AM 44.6 °F 38.8 °F 37.4 °F 76% 29.97 in 10.0 mi North 11.5 mph - N/A   Scattered Clouds
12:35 AM 44.6 °F 39.2 °F 39.2 °F 81% 29.96 in 10.0 mi North 10.4 mph - N/A   Scattered Clouds
12:55 AM 44.6 °F 40.2 °F 39.2 °F 81% 29.97 in 10.0 mi North 8.1 mph - N/A   Scattered Clouds
1:15 AM 44.6 °F 38.8 °F 37.4 °F 76% 29.97 in 10.0 mi North 11.5 mph 18.4 mph N/A   Mostly Cloudy
1:35 AM 44.6 °F 40.7 °F 37.4 °F 76% 29.97 in 10.0 mi North 6.9 mph 18.4 mph N/A   Overcast
1:55 AM 44.6 °F 38.8 °F 37.4 °F 76% 29.94 in 10.0 mi North 11.5 mph 18.4 mph N/A   Scattered Clouds
2:15 AM 44.6 °F 39.7 °F 37.4 °F 76% 29.95 in 10.0 mi NNE 9.2 mph 16.1 mph N/A   Mostly Cloudy
2:35 AM 44.6 °F 40.2 °F 37.4 °F 76% 29.97 in 10.0 mi North 8.1 mph - N/A   Mostly Cloudy
2:55 AM 44.6 °F 39.2 °F 37.4 °F 76% 30.00 in 10.0 mi North 10.4 mph - N/A   Drizzle
3:15 AM 44.6 °F 38.1 °F 37.4 °F 76% 29.96 in 10.0 mi North 13.8 mph 18.4 mph N/A   Mostly Cloudy
3:35 AM 44.6 °F 39.2 °F 35.6 °F 71% 29.94 in 10.0 mi North 10.4 mph 19.6 mph N/A   Overcast
3:55 AM 44.6 °F 39.7 °F 35.6 °F 71% 30.01 in 10.0 mi NNW 9.2 mph 19.6 mph N/A Rain Rain
4:15 AM 42.8 °F 36.6 °F 37.4 °F 81% 29.95 in 7.0 mi North 11.5 mph 21.9 mph 0.01 in Rain Rain
4:35 AM 42.8 °F 36.6 °F 37.4 °F 81% 29.96 in 10.0 mi North 11.5 mph 18.4 mph 0.01 in Rain Light Rain
4:55 AM 42.8 °F 41.1 °F 37.4 °F 81% 29.99 in 10.0 mi ENE 3.5 mph - 0.02 in Rain Light Rain
5:15 AM 42.8 °F 38.6 °F 37.4 °F 81% 29.98 in 10.0 mi NNE 6.9 mph - N/A   Light Drizzle
5:35 AM 41.0 °F 37.1 °F 37.4 °F 87% 29.98 in 10.0 mi NNE 5.8 mph - N/A   Scattered Clouds
5:55 AM 41.0 °F 35.8 °F 35.6 °F 81% 29.99 in 10.0 mi NNE 8.1 mph - N/A   Clear
6:15 AM 41.0 °F 34.7 °F 35.6 °F 81% 29.92 in 10.0 mi NE 10.4 mph 17.3 mph N/A   Mostly Cloudy
6:35 AM 41.0 °F 34.7 °F 35.6 °F 81% 29.92 in 10.0 mi NE 10.4 mph 17.3 mph N/A   Overcast
6:55 AM 42.8 °F 35.4 °F 35.6 °F 76% 29.90 in 10.0 mi ENE 15.0 mph 19.6 mph N/A   Overcast
7:15 AM 42.8 °F 37.5 °F 33.8 °F 70% 29.92 in 10.0 mi NE 9.2 mph - N/A   Overcast
7:35 AM 41.0 °F 35.8 °F 33.8 °F 76% 29.93 in 10.0 mi North 8.1 mph 18.4 mph N/A   Mostly Cloudy
7:55 AM 41.0 °F 35.2 °F 33.8 °F 76% 29.99 in 10.0 mi NNW 9.2 mph - N/A   Scattered Clouds
8:35 AM 42.8 °F 37.0 °F 35.6 °F 76% 29.99 in 10.0 mi NNE 10.4 mph 16.1 mph N/A   Clear
8:55 AM 42.8 °F 37.5 °F 35.6 °F 76% 30.01 in 10.0 mi NNE 9.2 mph - N/A   Clear
9:15 AM 44.6 °F 39.2 °F 35.6 °F 71% 30.01 in 10.0 mi North 10.4 mph - N/A   Clear
9:35 AM 44.6 °F 40.2 °F 35.6 °F 71% 30.01 in 10.0 mi NNE 8.1 mph - N/A   Clear
10:15 AM 46.4 °F 41.1 °F 33.8 °F 62% 30.01 in 10.0 mi North 11.5 mph 17.3 mph N/A   Clear
10:35 AM 46.4 °F 42.4 °F 35.6 °F 66% 30.01 in 10.0 mi North 8.1 mph - N/A   Clear
10:55 AM 48.2 °F - 33.8 °F 58% 30.00 in 10.0 mi NE 6.9 mph - N/A   Clear
11:15 AM 50.0 °F - 33.8 °F 54% 30.00 in 10.0 mi North 6.9 mph - N/A   Clear
11:35 AM 51.8 °F - 33.8 °F 50% 30.00 in 10.0 mi North 8.1 mph - N/A   Clear
11:55 AM 51.8 °F - 33.8 °F 50% 29.99 in 10.0 mi North 8.1 mph - N/A   Clear
12:15 PM 51.8 °F - 33.8 °F 50% 29.99 in 10.0 mi North 9.2 mph 16.1 mph N/A   Clear
12:35 PM 53.6 °F - 33.8 °F 47% 29.98 in 10.0 mi North 8.1 mph - N/A   Clear
12:55 PM 53.6 °F - 33.8 °F 47% 29.98 in 10.0 mi North 10.4 mph - N/A   Clear
1:15 PM 55.4 °F - 35.6 °F 47% 29.96 in 10.0 mi North 8.1 mph - N/A   Clear
1:35 PM 55.4 °F - 33.8 °F 44% 29.96 in 10.0 mi North 4.6 mph - N/A   Clear
1:55 PM 57.2 °F - 35.6 °F 44% 29.94 in 10.0 mi North 4.6 mph - N/A   Clear
2:15 PM 59.0 °F - 35.6 °F 42% 29.93 in 10.0 mi North 6.9 mph - N/A   Clear
2:35 PM 59.0 °F - 33.8 °F 39% 29.92 in 10.0 mi NNE 5.8 mph - N/A   Clear
2:55 PM 60.8 °F - 35.6 °F 39% 29.91 in 10.0 mi NE 5.8 mph - N/A   Clear
3:15 PM 60.8 °F - 35.6 °F 39% 29.90 in 10.0 mi NE 6.9 mph - N/A   Clear
3:35 PM 62.6 °F - 37.4 °F 39% 29.89 in 10.0 mi North 4.6 mph - N/A   Clear
3:55 PM 62.6 °F - 35.6 °F 37% 29.88 in 10.0 mi North 4.6 mph - N/A   Clear
4:15 PM 62.6 °F - 35.6 °F 37% 29.87 in 10.0 mi NNW 4.6 mph - N/A   Clear
4:35 PM 62.6 °F - 35.6 °F 37% 29.86 in 10.0 mi Calm Calm - N/A   Clear
4:55 PM 62.6 °F - 35.6 °F 37% 29.85 in 10.0 mi North 3.5 mph - N/A   Clear
5:15 PM 64.4 °F - 35.6 °F 34% 29.85 in 10.0 mi Calm Calm - N/A   Clear
5:35 PM 64.4 °F - 35.6 °F 34% 29.85 in 10.0 mi Calm Calm - N/A   Clear
5:55 PM 64.4 °F - 35.6 °F 34% 29.85 in 10.0 mi NNE 3.5 mph - N/A   Clear
6:15 PM 64.4 °F - 35.6 °F 34% 29.85 in 10.0 mi North 3.5 mph - N/A   Clear
6:35 PM 64.4 °F - 37.4 °F 37% 29.85 in 10.0 mi North 4.6 mph - N/A   Clear
6:55 PM 64.4 °F - 37.4 °F 37% 29.86 in 10.0 mi Calm Calm - N/A   Clear
7:15 PM 62.6 °F - 35.6 °F 37% 29.87 in 10.0 mi North 4.6 mph - N/A   Clear
7:35 PM 62.6 °F - 37.4 °F 39% 29.87 in 10.0 mi NNE 3.5 mph - N/A   Clear
7:55 PM 60.8 °F - 39.2 °F 45% 29.87 in 10.0 mi NNE 4.6 mph - N/A   Clear
8:15 PM 59.0 °F - 39.2 °F 48% 29.87 in 10.0 mi NE 3.5 mph - N/A   Clear
8:35 PM 55.4 °F - 41.0 °F 58% 29.87 in 10.0 mi Calm Calm - N/A   Clear
8:55 PM 55.4 °F - 41.0 °F 58% 29.87 in 10.0 mi Calm Calm - N/A   Clear
9:15 PM 53.6 °F - 41.0 °F 62% 29.87 in 10.0 mi Calm Calm - N/A   Clear
9:35 PM 51.8 °F - 42.8 °F 71% 29.88 in 10.0 mi Calm Calm - N/A   Clear
9:55 PM 50.0 °F - 42.8 °F 76% 29.90 in 10.0 mi Calm Calm - N/A   Clear
10:15 PM 50.0 °F - 41.0 °F 71% 29.91 in 10.0 mi Calm Calm - N/A   Clear
10:35 PM 48.2 °F - 42.8 °F 82% 29.92 in 10.0 mi Calm Calm - N/A   Clear
10:55 PM 48.2 °F - 42.8 °F 82% 29.92 in 10.0 mi Calm Calm - N/A   Clear
11:15 PM 46.4 °F - 41.0 °F 81% 29.93 in 10.0 mi Calm Calm - N/A   Clear
11:35 PM 46.4 °F - 42.8 °F 87% 29.92 in 10.0 mi Calm Calm - N/A   Clear
11:55 PM 46.4 °F - 41.0 °F 81% 29.93 in 10.0 mi Calm Calm - N/A   Clear